Retour au catalogue

ONEWEB-0183

ActifCommunicationsPO
NORAD 48219·PAYLOAD·🇬🇧 United Kingdom

Lancé Apr 25, 2021 depuis Vostochny Cosmodrome

Loading…

Prochains Passages (prochaines 24 heures)

TLE

FraisSource: CelesTrak SupGP

Époque: Sep 15, 2026, 02:13 UTC

1 48219C 21031K   26258.09288611 -.00002755  00000+0 -74386-2 0  2587
2 48219  87.8905 271.7743 0001967  97.9480 292.3600 13.14508466    15

Suivez ONEWEB-0183 en temps réel avec AllMySat

Download on the App Store